STARLINK-35805, 66359

Orbit data source: Space-Track

STARLINK-35805, 66359 is a payload satellite owned by SpaceX/Seattle (US) in LEO that was launched on Thu, 06 Nov 2025 UTC via an FALCON 9 launch vehicle from the Air Force Western Test Range (AFWTR). Payload-class satellites include a variety of spacecraft equipped with specific instruments for various scientific and technological missions. These include communications satellites like Starlink; space stations such as the ISS; scientific satellites like the Hubble; Earth observation satellites from companies like Planet Labs, Umbra, and HawkEye 360; GPS; miniature CubeSats for education and research; and military/defense satellites.

Loading next visibility...
Identifier
66359, 2025-254M
Orbit
LEO
Country
Flag of USUS
Related business
Manufacturer
SpaceX/Seattle
Mission
Operational Commercial Communications
Bus & Motor
STARLINK V2MO, Unknown motor
Mass
575 kg wet, ~530 kg dry
Launch date (UTC)
2025-11-06 (7 months ago)
Launch vehicle
FALCON 9
Launch site
Air Force Western Test Range (AFWTR)
Object type
Payload
Rocket body
Debris
Shape & HBR
Box + 2 Pan, 17.7 m
Radar Cross Section
36.964 m², Large (>1 m²)

Expand to show TLE details & history
Last TLE update: 1 day ago

TLE from 1 day ago
0 STARLINK-35805
1 66359U 25254M   26170.82596451  .00015845  00000-0  52102-3 0  9999
2 66359  53.1586 117.3013 0001257  97.2111 262.9034 15.31716010 35752
Epoch: 2026-06-19T19:49Z
TLE epoch observation values (Epoch: 2026-06-19T19:49:23.333Z)
Latitude
0.00002°
Longitude
-88.09528°
Altitude
471.699 km
Speed
7.631 km/s
True Right ascension
07h 49m 12s
True Declination
0° 00' 00"
Sunlit
Object was in daylight at epoch
Visualization orbit readout
Latitude
Unknown
Longitude
Unknown
Altitude
Unknown
Speed
Unknown
Apparent Right ascension
Unknown
Apparent Declination
Unknown
Sunlit
N/A
Visualization observer readout
Local Sidereal Time
07:18:11
Azimuth
Unknown
Elevation
Unknown
Doppler factor
Unknown
Orbital elements
Apogee altitude
471.81 km
Perigee altitude
470.088 km
Semi-major axis
6,849.086 km
Eccentricity
0.00013
Inclination
53.1586°
RAAN
117.3013°
Arg. of periapsis
97.2111°
True anomaly
262.88911°
Mean anomaly
262.9034°
Eccentric anomaly
262.89625°
Mean motion
3.82908 °/min
Orbital period
94.02 mins
BSTAR
0.00052102
Loading maneuver chart data...
Computing Atmospheric mass density...
Loading historical data...
Loading historical data...
Loading historical data...
Loading historical data...
Loading historical data...
Loading historical data...
Loading historical data...

Documentation

Showing up to 5 results
|